Temperature
13 14 14 15 19 20 21 21 20 19 19 18 18 20 21 21 21 19 14 14 15 15 15 16 16 16 16 16 16 16 16 16 16 16 16 16 16 16 16 16 16 16 16 16 16 16 16 15 15
13 13 14 16 20 21 21 20 19 19 18 17 17 18 18 17 15 14 13 14 14 15 15 15 16 16 16 16 16 16 16 16 16 16 16 16 16 16 16 16 16 16 16 16 16 15 15 15 15
13 13 15 18 19 22 21 19 19 18 16 17 16 16 16 15 14 13 13 14 14 14 15 15 15 15 15 16 16 16 16 16 16 16 16 16 16 16 16 16 16 16 16 16 15 15 15 15 15
13 14 16 18 19 19 19 19 18 17 16 16 16 16 14 12 12 13 13 14 14 14 15 15 15 15 15 15 15 15 16 16 16 16 16 16 16 16 16 16 16 16 16 15 15 15 15 15 15
13 15 17 17 18 18 18 17 17 18 17 16 16 16 14 12 12 13 13 14 14 14 15 15 15 15 15 15 15 15 15 15 15 16 16 16 16 16 16 15 15 15 15 15 15 15 15 15 15
13 16 18 18 17 17 17 16 17 17 16 15 16 16 13 12 12 13 13 14 14 14 14 15 15 15 15 15 15 15 15 15 15 15 15 15 15 15 15 15 15 15 15 15 15 15 15 15 15
14 16 17 18 16 16 16 15 17 17 17 15 15 15 13 12 12 13 13 13 14 14 14 14 14 14 15 15 15 15 15 15 15 15 15 15 15 15 15 15 15 15 15 15 15 15 15 15 15
13 16 16 16 17 16 15 14 15 16 15 13 14 15 14 12 12 13 13 13 13 14 14 14 14 14 14 14 14 15 15 15 15 15 15 15 15 15 15 15 15 15 15 15 15 15 15 15 15
12 15 16 16 16 15 14 14 13 13 13 12 12 13 12 12 12 12 12 13 13 13 13 14 14 14 14 14 14 14 14 14 14 15 15 15 14 14 14 14 14 14 14 14 15 15 15 15 15
13 15 15 14 15 15 14 14 13 14 14 13 11 11 11 11 12 12 12 12 13 13 13 13 13 14 14 14 14 14 14 14 14 14 14 14 14 14 14 14 14 14 14 14 14 14 14 14 14
12 13 12 12 12 13 13 13 13 15 15 14 13 11 11 11 11 12 12 12 12 12 13 13 13 13 13 13 13 14 14 14 14 14 14 14 14 14 14 14 14 14 14 14 14 14 14 14 14
12 11 11 11 11 12 13 12 12 13 13 12 11 11 11 11 11 11 11 12 12 12 12 12 13 13 13 13 13 13 13 13 13 13 13 13 13 13 13 13 13 13 13 13 14 13 13 13 13
12 11 10 10 10 11 11 12 11 11 10 10 10 10 10 10 11 11 11 11 11 11 12 12 12 12 12 13 13 13 13 13 13 13 13 13 13 13 13 13 13 13 13 13 13 13 13 13 13
11 11 10 10 11 11 12 11 11 10 10 10 10 10 10 10 10 10 11 11 11 11 11 11 12 12 12 12 12 12 12 13 12 12 12 12 12 12 12 12 12 12 12 12 12 12 12 13 13
11 12 11 11 11 11 12 12 12 10 10 10 10 9 10 10 10 10 10 11 11 11 11 11 11 11 11 12 12 12 12 12 12 12 11 11 12 12 12 12 12 12 12 12 12 12 12 12 12
12 13 12 11 11 11 13 13 12 9 10 10 10 9 9 9 10 10 10 10 10 10 10 11 11 11 11 11 11 11 11 11 11 11 11 11 11 11 11 11 11 11 11 11 12 12 12 12 12
12 13 12 11 11 11 12 13 12 9 10 10 10 10 9 9 9 10 10 10 10 10 10 10 10 10 10 11 11 11 10 10 10 10 10 10 11 11 11 11 11 11 11 11 11 11 11 11 11
12 13 12 12 11 11 12 12 12 10 10 10 10 10 9 9 9 9 9 10 9 9 10 10 10 10 10 10 10 10 10 10 10 10 10 10 10 10 10 10 10 10 10 10 10 11 11 11 11
12 12 12 11 10 10 11 12 12 11 10 10 10 10 9 9 9 9 9 9 9 9 9 9 9 10 9 10 10 9 9 9 9 9 9 9 9 10 10 10 10 10 10 10 10 10 10 10 10
12 12 11 10 10 10 11 11 12 11 10 10 10 10 9 8 8 9 9 9 9 9 9 9 9 9 9 9 9 9 9 9 9 9 9 9 9 9 9 9 9 9 9 9 9 9 10 10 9
11 11 11 10 10 10 11 13 12 11 10 9 9 9 8 8 8 8 8 9 9 9 9 9 9 9 9 9 8 8 8 8 8 8 8 8 8 9 9 9 9 9 9 9 9 9 9 9 9
10 9 9 10 11 12 11 12 14 12 11 10 9 9 9 8 8 8 8 8 9 8 8 8 8 8 8 8 8 8 8 8 8 8 8 8 8 8 8 8 8 8 8 8 8 8 8 8 8
9 9 9 10 10 10 10 11 14 11 12 12 11 9 9 8 8 8 8 8 8 8 8 8 8 8 8 8 8 8 7 7 7 7 7 7 8 8 8 8 8 8 8 8 8 8 8 8 8
8 9 9 9 10 11 10 11 13 13 12 12 11 9 8 8 8 8 8 8 8 8 8 8 8 8 8 7 7 7 7 7 7 7 7 7 7 7 7 7 7 7 7 7 7 7 7 7 7
9 10 11 11 11 12 8 9 11 12 11 11 10 9 8 8 8 8 8 8 8 8 8 8 8 7 7 7 7 7 7 7 7 7 7 7 7 7 7 7 7 7 7 7 7 7 7 7 6
9 10 11 12 12 12 9 10 12 11 9 8 8 8 7 7 7 8 8 8 8 8 8 8 7 7 7 7 7 7 6 6 6 6 6 6 6 6 6 6 6 6 6 6 6 6 6 6 6
9 9 9 10 9 10 12 11 11 10 10 9 8 8 8 7 7 7 8 8 7 7 7 7 7 7 7 7 6 6 6 6 6 6 6 5 5 5 5 5 5 6 6 5 5 5 5 5 5
9 9 9 9 10 12 13 12 12 11 11 10 9 9 8 7 7 8 8 8 7 7 7 7 7 7 6 6 6 6 6 6 6 5 5 5 5 5 5 5 5 5 5 5 5 5 5 5 5
8 8 9 9 9 11 12 13 12 11 10 10 10 9 8 7 7 8 8 8 7 7 7 7 7 6 6 6 6 6 6 5 5 5 5 5 5 5 5 5 5 5 4 4 4 4 4 4 4
8 9 9 10 9 9 10 12 11 10 9 9 9 8 8 7 7 7 7 7 7 7 7 7 7 6 6 6 6 6 5 5 5 5 5 5 4 4 4 4 4 4 4 4 4 4 3 3 3
Wind_Speed
2 2 3 4 6 6 11 7 6 8 6 4 4 4 5 4 2 5 5 4 3 3 4 5 6 6 6 5 5 5 5 5 5 5 5 5 4 4 4 4 3 4 4 4 4 5 5 5 6
3 3 4 5 8 11 10 9 9 7 7 8 6 5 5 5 5 5 4 4 3 4 5 6 6 6 6 6 6 5 4 4 3 3 3 3 4 4 4 3 3 3 3 3 4 5 5 6 6
4 3 5 6 8 12 9 8 10 8 8 6 5 4 4 5 4 3 4 3 3 4 5 6 6 6 6 6 5 5 5 4 3 2 2 2 3 3 4 4 3 3 4 3 4 4 5 6 7
5 4 4 7 12 7 4 8 10 12 6 4 6 7 4 4 2 3 3 3 4 5 5 7 6 6 5 5 5 4 4 4 3 2 1 1 2 3 3 3 3 3 3 4 4 5 5 7 8
3 5 7 8 10 6 4 6 10 9 7 6 7 7 6 4 4 4 4 5 5 6 6 7 8 7 6 5 5 5 4 3 3 3 2 1 1 2 2 3 3 4 4 4 5 6 6 7 8
5 5 8 11 10 7 6 6 8 8 7 7 7 8 6 4 4 5 5 6 6 6 6 7 8 8 8 7 6 5 4 3 3 3 3 2 2 2 2 3 3 4 5 6 6 6 7 8 9
5 6 8 11 10 8 6 5 8 8 8 6 5 7 7 5 4 4 6 7 7 7 7 7 7 6 7 7 7 6 5 4 3 3 4 3 3 2 2 3 4 5 5 6 6 7 7 9 9
2 4 6 8 11 8 6 5 4 6 6 4 2 6 7 6 4 4 6 7 7 8 8 8 7 7 5 5 6 6 5 5 4 3 4 4 3 2 3 4 3 5 5 6 7 7 8 9 10
3 5 8 8 9 8 8 6 3 3 6 4 3 4 7 7 5 5 5 6 7 8 8 8 8 7 6 5 5 4 4 4 3 2 3 4 4 4 4 3 3 4 5 6 7 8 9 10 11
3 5 5 3 3 7 8 7 6 7 7 5 6 7 8 7 6 5 5 5 6 7 8 8 8 8 7 5 4 4 4 3 3 4 4 4 4 4 5 3 4 5 5 7 8 9 9 11 10
2 3 4 2 3 7 7 5 3 8 5 6 9 10 8 6 5 5 5 5 6 6 7 8 8 8 7 6 5 4 4 4 4 4 4 4 4 4 4 3 3 4 5 6 7 8 9 9 8
4 4 4 3 2 4 6 5 4 2 3 6 8 9 8 6 5 5 4 5 5 6 7 8 8 7 7 6 5 4 4 4 4 5 5 4 3 4 4 3 4 4 4 5 6 6 8 9 10
5 5 6 6 6 6 7 6 4 4 5 8 8 8 7 6 5 4 4 4 4 5 7 7 8 7 7 6 5 4 4 4 5 5 5 5 4 4 4 4 4 5 5 5 6 7 7 8 9
8 10 8 5 5 3 6 5 4 4 6 7 8 7 6 5 4 3 3 3 4 5 6 7 7 7 7 5 5 4 5 5 5 4 5 5 4 4 4 4 4 5 5 6 6 7 7 7 7
9 10 8 5 3 2 3 3 3 5 6 7 6 6 5 4 3 2 2 3 3 4 5 6 6 7 6 5 5 4 4 4 4 5 6 6 5 5 4 4 4 5 6 7 6 7 6 7 7
5 7 5 3 3 1 3 4 5 5 7 7 6 5 4 3 2 1 1 2 2 4 5 6 5 6 6 5 4 4 4 4 4 5 5 6 6 6 4 4 4 6 6 5 5 6 6 6 7
4 6 5 3 3 2 1 3 5 6 7 6 6 6 5 4 2 1 0 1 2 3 4 5 5 5 5 4 4 4 4 4 4 5 5 6 7 6 5 4 5 6 5 4 5 5 6 7 7
7 7 5 3 2 1 2 3 4 6 7 7 7 6 6 5 3 2 1 0 1 2 3 4 5 5 5 3 2 2 3 4 5 5 6 7 7 7 5 4 5 5 4 4 5 6 6 6 6
7 7 6 2 2 1 3 5 5 5 7 8 8 7 7 6 4 2 2 1 0 1 3 4 5 5 4 3 3 2 3 3 4 5 7 7 8 7 6 5 5 5 4 5 6 6 6 5 5
7 8 5 3 2 1 2 6 5 5 7 7 7 7 7 5 4 4 3 2 1 1 2 3 4 4 4 3 3 2 2 2 3 4 6 7 8 8 6 6 5 5 5 5 5 5 5 4 3
6 4 4 2 1 1 2 4 5 4 5 5 6 6 6 6 5 5 4 3 2 2 2 2 3 3 3 3 2 1 1 1 2 3 4 6 7 7 7 6 5 5 5 4 5 5 5 5 3
4 3 3 2 2 0 2 3 4 4 5 5 5 6 6 5 5 5 5 4 4 3 2 2 2 2 3 2 2 2 2 1 2 3 3 5 6 7 7 7 6 5 5 5 5 5 5 4 4
4 3 2 1 1 1 1 3 3 2 5 5 5 5 5 5 5 5 5 5 4 3 2 2 2 2 2 1 1 1 1 1 1 2 3 4 4 6 7 7 6 6 5 6 6 5 5 3 3
4 3 3 1 1 2 2 3 4 3 4 3 2 3 3 4 5 5 4 4 4 3 3 3 2 2 1 1 1 1 1 1 1 2 3 3 3 4 7 7 6 6 5 6 6 5 5 4 4
1 1 1 2 2 2 2 4 6 2 3 4 3 2 3 3 4 5 5 5 4 4 4 3 3 2 2 2 1 1 2 2 1 2 2 3 3 4 6 6 6 5 5 5 5 5 5 5 4
1 1 1 2 2 1 3 6 4 1 2 4 4 4 3 3 4 5 5 5 5 5 5 4 4 4 3 2 2 2 2 1 1 1 2 2 3 3 5 5 5 6 6 5 5 4 5 4 5
1 1 2 1 1 3 4 5 6 3 3 4 4 3 3 3 4 5 5 5 5 5 5 5 5 4 4 3 3 2 2 2 1 1 1 1 2 3 4 4 5 5 5 5 5 4 5 5 5
2 2 1 1 2 3 4 4 3 3 3 3 3 3 3 2 3 4 5 5 5 5 5 5 6 5 4 4 3 3 3 2 2 1 1 1 2 2 3 3 4 4 5 5 4 4 5 5 5
2 2 2 1 2 3 4 2 1 3 2 2 2 3 3 4 4 5 5 5 5 5 5 5 6 6 5 4 4 4 3 3 2 2 1 1 1 1 2 3 3 4 4 4 4 4 4 5 5
3 3 4 3 3 3 4 4 3 2 2 3 4 5 5 5 5 5 5 5 5 5 5 6 6 6 6 5 5 5 4 4 3 3 2 1 1 1 1 2 2 2 3 3 3 3 3 4 4
Wind_Direction
216 191 197 195 197 211 218 196 181 161 160 146 130 148 144 130 122 112 87 55 47 80 81 89 72 76 88 96 102 109 120 136 140 143 148 152 152 151 152 158 162 161 161 163 163 165 159 150 147
190 179 190 203 213 209 208 194 177 163 139 132 119 123 120 109 71 86 84 36 49 81 84 78 74 75 81 84 89 95 101 108 129 138 150 171 177 177 180 182 183 180 176 177 180 176 172 168 165
172 193 197 197 215 217 194 171 165 142 136 144 129 107 107 111 92 82 49 37 80 85 82 73 73 76 79 82 83 82 83 83 94 124 145 180 203 207 208 208 203 202 198 199 195 189 185 184 178
176 179 200 213 209 214 184 150 149 144 141 128 139 120 102 63 57 59 52 77 90 82 75 71 65 68 74 76 76 73 70 68 68 78 98 183 224 234 233 226 223 216 211 215 211 205 201 199 192
196 192 191 202 205 187 160 149 158 157 147 139 145 127 113 81 72 71 73 78 86 79 69 69 58 55 58 64 66 61 57 56 52 48 43 23 298 262 262 254 242 232 229 226 225 224 217 209 204
183 200 201 198 187 174 163 163 168 156 139 138 143 130 119 105 84 71 74 75 73 70 63 64 57 51 48 50 54 51 47 44 37 26 6 333 313 286 265 262 255 250 242 237 234 234 227 216 215
201 194 200 189 176 177 166 165 174 159 146 138 140 136 134 128 79 80 82 76 67 59 53 48 47 48 47 47 43 40 40 36 26 14 1 345 320 290 278 270 262 262 256 250 242 237 233 226 224
214 178 173 181 178 174 156 147 145 159 133 113 149 152 148 139 112 102 91 75 63 52 44 37 35 34 30 33 40 36 37 31 17 10 357 336 300 270 268 267 272 273 265 262 252 244 242 238 233
218 201 187 183 180 161 157 153 132 117 131 114 87 90 113 123 130 118 98 77 59 47 37 29 25 24 21 21 26 30 37 28 0 350 344 312 290 280 266 276 289 283 273 266 260 254 249 246 237
208 198 181 170 169 155 153 148 143 154 147 139 122 109 114 125 125 109 88 68 50 37 28 23 19 15 13 13 14 13 12 10 354 343 333 313 305 298 296 280 271 272 273 264 257 257 249 246 244
143 154 136 116 121 143 140 134 153 163 164 163 150 140 133 126 113 97 81 64 47 32 25 19 14 12 11 7 7 4 360 358 350 345 333 318 307 299 294 287 274 272 268 267 258 250 251 251 251
122 95 105 110 103 137 137 132 121 133 128 125 131 135 135 127 109 93 77 57 41 30 23 17 13 12 10 5 4 1 359 356 352 345 337 325 314 305 299 291 290 284 279 278 272 267 261 259 257
119 113 88 87 91 104 115 115 108 99 118 123 124 130 131 121 105 88 76 58 37 25 17 13 11 11 8 5 360 1 359 353 349 345 342 335 318 305 302 296 295 289 286 282 279 274 273 268 262
121 114 103 86 89 92 110 112 113 126 138 136 136 136 134 125 115 99 73 51 32 20 12 7 9 8 7 7 3 358 354 350 347 349 346 338 326 317 307 301 301 297 293 287 282 280 277 274 269
127 116 98 57 62 77 116 112 144 147 155 152 153 150 144 136 127 105 70 40 22 17 11 7 4 5 7 8 6 1 356 353 355 355 350 346 338 324 314 304 301 301 296 290 285 282 280 277 274
134 144 133 58 36 14 198 168 143 163 173 176 175 172 170 165 157 123 70 41 22 14 11 9 4 3 7 7 2 3 1 3 1 357 354 352 346 337 323 312 306 306 300 294 288 286 280 275 274
149 155 148 117 36 18 191 174 156 175 191 197 196 196 196 194 192 180 97 26 16 12 9 8 7 3 1 0 4 10 10 14 10 5 2 356 352 345 335 321 316 312 306 298 293 289 285 281 278
156 150 149 141 40 5 197 198 184 196 212 219 215 213 211 215 220 209 200 0 8 13 10 8 8 5 356 356 2 17 26 23 16 12 10 2 357 353 344 332 326 322 309 304 300 292 290 286 286
138 143 135 105 28 292 230 238 233 213 214 222 222 221 220 225 223 208 205 207 321 7 6 6 5 4 358 352 354 358 7 8 10 15 11 6 3 358 352 343 334 330 316 311 307 296 290 287 295
125 133 124 109 49 322 263 265 250 218 216 223 225 225 226 225 219 212 213 211 239 314 347 354 358 357 357 352 341 329 331 345 4 11 12 9 6 4 359 353 342 337 324 320 318 313 296 287 290
92 122 126 125 83 108 307 254 211 200 213 222 228 230 228 225 225 219 216 220 233 264 312 330 341 345 347 341 332 321 327 329 4 8 8 7 5 4 1 357 351 343 339 330 323 315 303 295 293
100 88 120 136 195 179 343 264 217 205 224 228 228 226 228 224 226 223 221 226 234 251 273 296 312 330 339 337 334 341 344 342 348 352 352 356 5 6 4 359 356 351 344 337 332 329 312 300 296
100 110 111 108 110 219 199 255 246 193 230 225 219 221 225 224 225 227 226 231 238 243 252 268 286 306 324 322 324 318 317 328 341 353 353 357 4 9 7 1 359 357 350 345 340 336 334 323 311
126 123 106 111 206 233 209 243 262 211 216 206 197 215 227 228 228 233 232 232 236 235 238 247 260 278 296 285 273 283 290 299 324 352 354 354 357 2 5 1 2 0 357 351 346 345 347 344 337
151 191 186 194 216 227 145 244 256 246 236 239 240 246 249 233 228 232 233 234 238 237 235 235 242 256 265 261 251 249 263 281 308 331 345 347 350 353 355 357 359 2 359 357 355 358 360 0 358
61 318 301 259 253 258 196 243 259 264 267 257 254 256 256 236 231 238 240 239 242 242 236 231 233 241 245 246 249 250 247 253 280 313 327 338 341 346 349 354 1 5 5 4 5 7 9 11 12
124 93 13 26 327 272 249 267 280 224 235 232 229 233 240 240 239 245 245 242 242 241 235 230 229 232 233 236 238 240 234 227 241 274 309 329 339 343 354 359 4 10 13 12 12 16 15 17 21
12 133 177 218 264 272 272 257 252 215 204 202 212 234 256 269 266 258 251 247 244 244 240 231 229 230 230 228 228 232 230 222 221 234 282 320 341 352 352 2 8 13 17 18 23 23 18 25 25
161 176 210 219 271 276 287 275 170 216 221 248 261 278 279 285 283 271 261 253 251 247 238 229 225 223 221 220 219 220 222 216 210 214 236 276 318 341 348 0 7 13 18 20 29 30 25 29 27
246 229 211 247 244 244 275 280 94 218 262 276 289 298 293 290 288 278 270 259 253 248 239 230 225 223 222 217 213 214 214 212 210 211 218 230 263 304 328 350 2 12 16 19 24 26 25 24 21
Height
1510 1512 1515 1519 1518 1512 1507 1507 1509 1514 1516 1519 1520 1520 1519 1522 1524 1533 1535 1533 1534 1535 1536 1537 1538 1538 1539 1540 1540 1541 1541 1542 1542 1542 1542 1542 1542 1542 1542 1542 1541 1541 1541 1541 1541 1541 1540 1540 1540
1509 1512 1517 1517 1509 1505 1504 1505 1510 1512 1516 1520 1522 1522 1523 1527 1530 1532 1532 1533 1534 1535 1536 1537 1538 1538 1539 1539 1540 1540 1541 1541 1541 1542 1542 1542 1542 1542 1541 1541 1541 1541 1541 1541 1541 1540 1540 1540 1540
1509 1512 1515 1511 1504 1497 1500 1507 1510 1515 1518 1520 1522 1524 1526 1528 1530 1531 1532 1533 1534 1536 1536 1537 1537 1538 1538 1539 1539 1540 1540 1540 1541 1541 1541 1541 1541 1541 1541 1541 1541 1541 1540 1540 1540 1540 1540 1540 1540
1510 1513 1514 1508 1503 1503 1503 1508 1512 1515 1519 1520 1521 1525 1528 1529 1530 1531 1532 1533 1535 1535 1536 1537 1537 1538 1538 1538 1539 1539 1539 1540 1540 1540 1540 1540 1540 1540 1540 1540 1540 1540 1540 1540 1539 1539 1539 1539 1539
1509 1510 1507 1505 1503 1507 1509 1512 1514 1514 1517 1520 1522 1524 1528 1529 1529 1530 1532 1533 1534 1535 1536 1536 1537 1537 1537 1538 1538 1538 1538 1538 1539 1539 1539 1539 1539 1538 1538 1538 1538 1538 1538 1538 1538 1538 1538 1538 1538
1509 1506 1501 1500 1504 1509 1511 1514 1515 1515 1518 1521 1522 1524 1528 1529 1530 1531 1532 1533 1534 1535 1535 1536 1536 1536 1537 1537 1537 1537 1537 1537 1537 1537 1537 1537 1537 1537 1537 1537 1537 1537 1537 1537 1537 1537 1537 1537 1537
1506 1502 1498 1497 1504 1508 1512 1515 1515 1515 1518 1521 1523 1525 1528 1530 1530 1531 1532 1533 1534 1534 1535 1535 1535 1535 1536 1536 1536 1536 1535 1535 1536 1535 1535 1535 1535 1535 1535 1535 1535 1534 1535 1535 1535 1535 1535 1535 1535
1504 1503 1502 1501 1502 1507 1513 1515 1517 1517 1519 1523 1524 1524 1528 1529 1530 1531 1532 1533 1533 1534 1534 1534 1534 1534 1534 1534 1534 1534 1534 1534 1534 1534 1533 1533 1533 1533 1533 1532 1532 1532 1532 1532 1532 1532 1533 1533 1533
1504 1503 1499 1501 1501 1507 1513 1515 1518 1519 1520 1522 1524 1525 1527 1528 1529 1531 1532 1533 1533 1533 1533 1533 1533 1533 1533 1532 1532 1532 1532 1532 1532 1531 1531 1531 1531 1531 1530 1530 1530 1530 1529 1529 1529 1530 1530 1530 1530
1504 1500 1501 1505 1505 1508 1512 1514 1517 1519 1520 1523 1524 1525 1526 1528 1530 1531 1532 1532 1532 1532 1532 1532 1531 1531 1531 1531 1531 1530 1530 1530 1529 1529 1529 1529 1528 1528 1528 1527 1527 1527 1526 1526 1526 1526 1527 1527 1527
1504 1503 1507 1509 1509 1510 1513 1516 1518 1517 1519 1521 1523 1525 1527 1528 1530 1530 1531 1531 1531 1531 1531 1531 1530 1530 1530 1529 1529 1529 1528 1528 1527 1527 1526 1526 1525 1525 1525 1525 1524 1524 1523 1523 1523 1523 1523 1523 1523
1506 1509 1510 1511 1512 1513 1514 1516 1518 1519 1521 1523 1524 1526 1527 1529 1529 1530 1530 1531 1531 1531 1530 1530 1529 1529 1528 1528 1527 1527 1526 1526 1525 1524 1524 1523 1522 1522 1522 1521 1521 1521 1520 1520 1520 1520 1520 1520 1520
1506 1511 1512 1513 1513 1514 1515 1517 1519 1521 1522 1523 1525 1526 1527 1528 1529 1530 1530 1530 1530 1530 1530 1529 1528 1528 1527 1526 1526 1525 1524 1523 1523 1522 1521 1520 1519 1519 1518 1518 1518 1517 1517 1517 1516 1516 1516 1516 1516
1508 1511 1513 1515 1515 1516 1516 1518 1520 1523 1523 1524 1525 1526 1527 1528 1529 1529 1530 1530 1530 1529 1529 1528 1527 1526 1525 1525 1524 1523 1522 1521 1520 1519 1519 1518 1517 1516 1515 1515 1514 1514 1513 1513 1513 1513 1512 1512 1512
1510 1511 1514 1516 1516 1517 1517 1518 1521 1523 1524 1525 1526 1526 1527 1528 1528 1529 1529 1529 1529 1528 1527 1527 1526 1525 1524 1523 1522 1521 1520 1519 1518 1517 1516 1515 1515 1514 1513 1512 1511 1511 1510 1510 1509 1509 1509 1508 1508
1509 1509 1511 1517 1517 1518 1518 1516 1521 1523 1524 1524 1525 1526 1527 1527 1527 1528 1528 1528 1528 1527 1526 1526 1525 1524 1523 1522 1521 1519 1518 1517 1516 1515 1514 1513 1512 1511 1510 1509 1509 1508 1507 1506 1506 1505 1505 1504 1504
1507 1508 1510 1517 1519 1518 1516 1515 1520 1522 1523 1524 1524 1525 1526 1526 1526 1526 1527 1526 1526 1526 1525 1524 1523 1522 1521 1520 1519 1518 1517 1516 1515 1514 1513 1511 1510 1509 1508 1507 1506 1505 1504 1503 1503 1502 1501 1500 1500
1506 1507 1511 1514 1519 1519 1517 1516 1519 1521 1522 1522 1523 1524 1524 1525 1525 1525 1525 1525 1525 1524 1524 1523 1522 1521 1520 1519 1518 1517 1516 1514 1513 1512 1511 1510 1508 1507 1506 1505 1504 1503 1501 1500 1499 1498 1497 1497 1496
1506 1507 1511 1517 1521 1520 1516 1516 1517 1519 1520 1520 1520 1521 1522 1522 1523 1523 1523 1523 1523 1523 1522 1521 1520 1519 1518 1517 1516 1515 1514 1513 1512 1511 1509 1508 1507 1505 1504 1502 1501 1500 1499 1497 1496 1495 1494 1493 1492
1509 1510 1513 1519 1521 1519 1517 1514 1514 1516 1516 1517 1518 1519 1519 1520 1520 1521 1521 1521 1521 1521 1521 1520 1519 1518 1517 1515 1514 1513 1512 1511 1510 1509 1508 1506 1505 1503 1502 1500 1499 1497 1496 1494 1493 1492 1491 1490 1489
1514 1513 1515 1518 1520 1521 1518 1509 1510 1512 1515 1515 1516 1516 1517 1517 1518 1518 1519 1519 1519 1519 1519 1518 1517 1516 1515 1514 1513 1512 1511 1510 1509 1507 1506 1505 1503 1502 1500 1498 1497 1495 1493 1492 1491 1489 1488 1487 1487
1517 1521 1521 1520 1516 1515 1519 1511 1503 1508 1510 1512 1513 1514 1514 1515 1516 1516 1517 1517 1517 1517 1517 1516 1515 1514 1513 1512 1511 1510 1509 1508 1507 1506 1504 1503 1502 1500 1498 1496 1495 1493 1491 1490 1488 1487 1486 1485 1484
1521 1523 1522 1521 1519 1519 1519 1516 1501 1507 1506 1507 1510 1511 1512 1513 1514 1514 1515 1515 1515 1515 1514 1514 1513 1512 1511 1510 1509 1508 1507 1506 1505 1504 1503 1501 1500 1498 1496 1494 1493 1491 1489 1488 1486 1485 1484 1483 1482
1524 1524 1523 1522 1518 1518 1520 1517 1503 1501 1503 1505 1508 1509 1510 1511 1512 1512 1513 1513 1513 1512 1512 1511 1511 1510 1509 1508 1507 1506 1505 1504 1503 1502 1501 1500 1498 1496 1495 1493 1491 1489 1487 1486 1484 1483 1482 1480 1479
1523 1520 1518 1516 1515 1511 1525 1521 1506 1501 1504 1506 1507 1508 1509 1509 1510 1510 1510 1510 1510 1510 1509 1509 1508 1507 1506 1505 1505 1504 1503 1502 1501 1500 1499 1498 1496 1494 1493 1491 1489 1487 1486 1484 1483 1481 1480 1478 1477
1524 1522 1519 1514 1508 1507 1522 1514 1501 1503 1505 1506 1506 1507 1507 1507 1507 1507 1508 1508 1508 1507 1507 1506 1506 1505 1504 1503 1502 1502 1501 1500 1499 1498 1497 1496 1494 1492 1491 1489 1488 1486 1484 1482 1481 1479 1478 1476 1475
1523 1523 1526 1522 1523 1516 1504 1506 1501 1502 1503 1504 1505 1505 1505 1505 1505 1505 1505 1505 1505 1505 1504 1504 1503 1502 1502 1501 1500 1500 1499 1498 1497 1496 1495 1494 1492 1491 1489 1488 1486 1484 1483 1481 1479 1478 1476 1475 1473
1528 1526 1525 1524 1518 1507 1500 1500 1497 1498 1499 1501 1503 1503 1504 1504 1503 1503 1503 1503 1502 1502 1501 1501 1500 1499 1499 1498 1498 1497 1497 1496 1495 1494 1493 1492 1490 1489 1487 1486 1484 1482 1481 1479 1478 1476 1475 1473 1472
1528 1528 1525 1523 1521 1512 1501 1495 1495 1497 1499 1501 1502 1502 1502 1502 1501 1501 1500 1500 1499 1499 1498 1497 1497 1496 1496 1496 1495 1495 1494 1493 1492 1492 1491 1490 1488 1487 1485 1484 1482 1481 1479 1477 1476 1474 1473 1471 1470
1526 1524 1524 1520 1520 1520 1511 1500 1497 1499 1500 1501 1501 1501 1501 1500 1499 1498 1497 1497 1496 1495 1495 1494 1494 1493 1493 1493 1492 1492 1491 1490 1490 1489 1488 1487 1486 1484 1483 1482 1480 1479 1477 1475 1474 1472 1471 1469 1468